Location: Elende
(51.4317°N, 10.6316°E)
Time: 16:07:56
(UTC+00:00)

YAOGAN 1 - Pass Details

Date: 18 September 2020
Orbit: 618 x 620 km, 97.9° (Epoch: 22 October)

Event Time Altitude Azimuth Distance (km) Brightness Sun altitude
Rises 18:22:47 0° 184° (S) 2,887 5.9 -9.8°
Reaches altitude 10° 18:25:05 10° 192° (SSW) 1,986 5.1 -10.2°
Maximum altitude 18:29:09 39° 262° (W) 932 4.1 -10.8°
Drops below altitude 10° 18:33:14 10° 332° (NNW) 2,001 5.8 -11.4°
Sets 18:35:34 0° 341° (NNW) 2,912 6.6 -11.8°
